Погода в Качалове

Россия / Ивановская область     56°56′31″N   41°26′33″E
темп.,
°C
ветер,
м/с
пор.,
м/с
влажн.,
%
обл.,
%
осадки,
мм/ч
давл.,
гПа
погр.,
м
19 апреля, пн
пн1900:00+5в6118251 0.0 1026629
03:00+3всв5108395 0.0 1027484
06:00+2всв51176100 0.0 1027469
09:00+3всв61064100 0.0 1028620
12:00+7в7952100 0.0 10281167
15:00+8в7945100 0.0 10281583
18:00+7в61047100 0.0 10281423
21:00+4в61253100 0.0 1028691
20 апреля, вт
вт2000:00+2в613637 0.0 1028524
03:000в6136411 0.0 1028449
06:000в6146314 0.0 1027495
09:00+5в7125094 0.0 1027814
12:00+8вюв8114594 0.0 10251377
15:00+10вюв71142100 0.0 10231630
18:00+9вюв8134799 0.0 10211423
21:00+6в71451100 0.0 1019888
21 апреля, ср
ср2100:00+5в81551100 0.0 1016952
03:00+2в91986100 2.3 1012948
06:00+1вюв91996100 2.1 1009895
09:00+3вюв91892100 4.6 1006936
12:00+5вюв101890100 0.9 10041066
15:00+7ююв81584100 1.2 10031221
18:00+4ююз81496100 0.0 10071040
21:00+4ююз71286100 0.1 10111097
22 апреля, чт
чт2200:00+4ююз51188100 0.1 1013591
03:00+4ю51288100 0.1 1014455
06:00+4ю5119343 0.2 1014480
09:00+7ююз5980100 0.2 1015904
12:00+8ююз6977100 0.1 1016978
15:00+11юз696153 0.4 10161571
18:00+10ю597240 0.3 1018696
21:00+7ю3108976 0.3 1019212
23 апреля, пт
пт2300:00+6ююв399448 0.1 1019185
03:00+5ююв3994100 0.3 1019187
06:00+6ю3109165 0.1 1019209
09:00+12ю596762 0.1 1018529
12:00+15ю695664 0.0 10181403
15:00+16ю694950 0.5 10162141
18:00+14ю6106234 0.2 1016885
21:00+10юв4127518 0.3 1015327